Regional Weather Roundup
Issued by NWS

Home | Current Version | Previous Version | Text Only | Print | Product List | Glossary On
Versions: 1 2 3 4 5 6 7 8 9 10 11 12 13 14 15 16 17 18 19 20 21 22 23 24 25 26 27 28 29 30 31 32 33 34 35 36 37 38 39 40 41 42 43 44 45 46 47 48 49 50
000
ASUS43 KLOT 101012
RWRIL

ILLINOIS REGIONAL WEATHER ROUNDUP
NATIONAL WEATHER SERVICE CHICAGO/ROMEOVILLE IL
400 AM CST SAT DEC 10 2016

NOTE: "FAIR" INDICATES FEW OR NO CLOUDS BELOW 12,000 FEET WITH NO
SIGNIFICANT WEATHER AND/OR OBSTRUCTIONS TO VISIBILITY.

* THESE STATIONS ARE NOT UNDER NWS QUALITY CONTROL. THEY ALSO MAY NOT
  REPORT WEATHER SUCH AS PRECIPITATION OR FOG.

ILZ001-002-007-009-015-016-024-101100-
NORTHWEST ILLINOIS

CITY           SKY/WX    TMP DP  RH WIND       PRES   REMARKS
MOLINE         CLOUDY    21  14  74 SW3       30.54F
STERLING*      CLOUDY    19  15  84 W6        30.54S WCI  11
SAVANNA*       CLOUDY    19  14  81 W3        30.52F
$$

ILZ003-004-008-010-011-017-018-101100-
NORTH CENTRAL ILLINOIS

CITY           SKY/WX    TMP DP  RH WIND       PRES   REMARKS
ROCKFORD       FLURRIES  18  13  80 W7        30.52S WCI   9
FREEPORT*      CLOUDY    17  13  85 W6        30.52S WCI   9
ROCHELLE*      CLOUDY    18  14  84 W7        30.52S WCI   9
DE KALB*       CLOUDY    18  13  82 W8        30.50S WCI   7
$$

ILZ005-006-012>014-019>023-101100-
NORTHEAST ILLINOIS

CITY           SKY/WX    TMP DP  RH WIND       PRES   REMARKS
CHICAGO-OHARE  CLOUDY    19  12  74 W10       30.49F WCI   7
CHICAGO-MIDWAY CLOUDY    21  12  68 W7        30.51S WCI  12
AURORA         CLOUDY    19  13  77 W9        30.52S WCI   8
LANSING*       CLOUDY    20  16  82 W7        30.52S WCI  12
JOLIET*        CLOUDY    22  16  78 CALM      30.53S
WAUKEGAN       CLOUDY    19  13  77 W5        30.47S WCI  12
DUPAGE AIRPORT CLOUDY    19  11  70 W9        30.50S WCI   8
KANKAKEE*      CLOUDY    23  16  74 CALM      30.54S
WHEELING       CLOUDY    19  12  74 W6        30.51S WCI  11
MORRIS*        CLOUDY    21  15  79 W8        30.52F WCI  11
ROMEOVILLE*    CLOUDY    19  17  90 W7        30.52S WCI  10
NORTHERLY ISL    N/A     21  14  74 W8          N/A  WCI  12
$$

LMZ740>746-101100-
SOUTHERN LAKE MICHIGAN

STATION/POSITION SKY/WX   TEMP    WIND        PRES    VSBY  WAVE
                          AIR SEA DIR/SP/G                  HT/PER
                          (F)     (DEG/KT/KT) (MB)    (MI)  (FT/S)
BURNHAM HARBOR             21     250/ 10/ 12   N/A
CALUMET HARBOR             20     250/  7/ 12 1032.5R
BURNS HARBOR               24     270/ 15/ 21 1033.2S
$$

ILZ025>027-034>036-040-047-049-050-058-095>099-101100-
WEST-CENTRAL ILLINOIS

CITY           SKY/WX    TMP DP  RH WIND       PRES   REMARKS
QUINCY         CLOUDY    23  15  71 CALM      30.54F
GALESBURG*     CLOUDY    21  16  83 SW3       30.54S
MACOMB*        CLOUDY    22  17  81 CALM      30.57F
JACKSONVILLE*  CLOUDY    22  16  77 CALM      30.56F
PITTSFIELD*    CLOUDY    24  18  77 CALM      30.56F
$$

ILZ028>032-037-038-041>044-048-051>054-059>061-101100-
CENTRAL ILLINOIS

CITY           SKY/WX    TMP DP  RH WIND       PRES   REMARKS
PONTIAC        CLOUDY    22  16  77 W8        30.55S WCI  13
BLOOMINGTON    CLOUDY    21  15  78 W6        30.54S WCI  13
DECATUR        CLOUDY    22  14  71 W3        30.56S
PEORIA         CLOUDY    22  14  71 W3        30.56F
LACON*         CLOUDY    21  14  74 W6        30.55S WCI  13
LINCOLN*       CLOUDY    23  17  76 CALM      30.56F
SPRINGFIELD    CLOUDY    24  17  74 NW5       30.57F WCI  18
TAYLORVILLE    CLOUDY    23  18  81 CALM      30.57S
$$

ILZ033-039-045-046-055>057-062-063-101100-
EAST-CENTRAL ILLINOIS

CITY           SKY/WX    TMP DP  RH WIND       PRES   REMARKS
CHAMPAIGN      CLOUDY    22  15  75 W7        30.55S WCI  13
RANTOUL*       CLOUDY    24  18  78 W6        30.55S WCI  17
MATTOON        CLOUDY    22  16  78 CALM      30.55S
PARIS*         CLOUDY    22  18  83 W5        30.56S WCI  16
$$

ILZ079-100>102-101100-
SOUTHWEST ILLINOIS

CITY           SKY/WX    TMP DP  RH WIND       PRES   REMARKS
ALTON          CLOUDY    24  18  80 S3        30.58F
BELLEVILLE     CLOUDY    24  20  83 W2        30.57S
CAHOKIA*       CLOUDY    26  18  71 S3        30.58F
SPARTA*        CLOUDY    24  18  78 CALM      30.59S
$$

ILZ064>066-069>071-074>076-080>082-084>086-088>090-092>094-101100-
SOUTH-CENTRAL ILLINOIS

CITY           SKY/WX    TMP DP  RH WIND       PRES   REMARKS
CARBONDALE     CLOUDY    22  19  89 CALM      30.59F
CAIRO*         CLEAR     16  14  95 CALM      30.60S
EFFINGHAM*     CLOUDY    23  20  89 SW3       30.59R
MARION         CLOUDY    25  21  86 CALM      30.60S
CENTRALIA*     CLOUDY    24  20  85 CALM      30.58S
SALEM*         CLOUDY    25  19  77 CALM      30.58S
METROPOLIS*    CLEAR     16  14  91 CALM      30.61R
$$

ILZ067-068-072-073-078-083-087-091-101100-
SOUTHEAST ILLINOIS

CITY           SKY/WX    TMP DP  RH WIND       PRES   REMARKS
LAWRENCEVILLE  CLOUDY    23  18  81 W3        30.58F
FLORA*         CLOUDY    24  19  82 SW3       30.59S
FAIRFIELD*     CLOUDY    23  19  86 CALM      30.58S
HARRISBURG*    CLOUDY    23  20  89 CALM      30.60S
ROBINSON*      CLOUDY    22  18  85 W5        30.59S WCI  16
CARMI*         CLOUDY    23  19  87 CALM      30.59S
$$

ABBREVIATIONS USED IN REMARKS
   TC - TEMPERATURE IN CELSIUS
  WCI - WIND CHILL INDEX
   HX - HEAT INDEX
  VSB - VISIBILITY
$$





USA.gov is the U.S. government's official web portal to all federal, state and local government web resources and services.